Location: Huesca
(42.1318°N, 0.4078°W)
Time: 17:37:39
(UTC+01:00)

Explorer 7 - Pass Details

Date: 21 December 2025
Orbit: 433 x 550 km, 50.2° (Epoch: 17 January)

Event Time Altitude Azimuth Distance (km) Brightness Sun altitude
Rises 19:44:54 0° 303° (WNW) 2,451 10.8 -23.5°
Reaches altitude 10° 19:47:09 10° 311° (NW) 1,563 9.6 -23.9°
Enters shadow 19:48:38 21° 324° (NW) 1,033 8.4 -24.2°
